Fort Rucker / Ozark, AL

1:28 PM CDT on May 24, 2017 (GMT -0500)
Fort Rucker / Ozark

Weather History for KLOR - July, 2013

Change the Weather History Date:

Friday, July 19, 2013

  Actual Average (KOZR) Record (KOZR)
Temperature  
Mean Temperature 79 °F -  
Max Temperature 87 °F 88 °F 102 °F (2000)
Min Temperature 71 °F 69 °F 69 °F (1999)
Cooling Degree Days 14    
Growing Degree Days 29 (Base 50)    
Moisture  
Dew Point 72 °F    
Average Humidity 86    
Maximum Humidity 100    
Minimum Humidity 59    
Precipitation  
Precipitation 0.07 in - - ()
Sea Level Pressure  
Sea Level Pressure 30.04 in    
Wind  
Wind Speed 1 mph (WSW)    
Max Wind Speed 8 mph    
Max Gust Speed -    
Visibility 9 miles    
Events Rain , Thunderstorm    
Averages and records for this station are not official NWS values.
T = Trace of Precipitation, MM = Missing Value Source: NWS Daily Summary

Daily Weather History Graph

Daily Weather History Graph

Search for Another Location

Airport or City:

Trip Planner

Search our weather history database for the weather conditions in past years. The results will help you decide how hot, cold, wet, or windy it might be!

Date:

Astronomy

Jul. 19, 2013 Rise Set
Actual Time 5:51 AM CDT 7:46 PM CDT
Civil Twilight 5:24 AM CDT 8:13 PM CDT
Nautical Twilight 4:51 AM CDT 8:46 PM CDT
Astronomical Twilight 4:16 AM CDT 9:21 PM CDT
Moon 4:49 PM CDT (7/19) 2:30 AM CDT (7/19)
Length of Visible Light 14h 49m
Length of Day
13h 55m
Waxing Gibbous, 87% of the Moon is Illuminated
Jul 19
Waxing Gibbous
Jul 22
Full
Jul 29
Last Quarter
Aug 6
New
Aug 14
First Quarter

Hourly Weather History & Observations

Time (CDT) Temp. Heat Index Dew Point Humidity Pressure Visibility Wind Dir Wind Speed Gust Speed Precip Events Conditions
12:53 AM 73.0 °F - 72.0 °F 96% 30.08 in 9.0 mi Calm Calm - N/A   Clear
1:53 AM 73.0 °F - 72.0 °F 96% 30.06 in 7.0 mi Calm Calm - N/A   Clear
2:53 AM 72.0 °F - 71.1 °F 97% 30.04 in 6.0 mi Calm Calm - N/A   Clear
3:11 AM 71.6 °F - 71.6 °F 100% 30.05 in 6.0 mi Calm Calm - N/A   Partly Cloudy
3:53 AM 72.0 °F - 71.1 °F 97% 30.04 in 7.0 mi Calm Calm - N/A   Clear
4:53 AM 71.1 °F - 70.0 °F 96% 30.04 in 7.0 mi Calm Calm - N/A   Clear
5:53 AM 72.0 °F - 70.0 °F 93% 30.05 in 9.0 mi Calm Calm - N/A   Mostly Cloudy
6:53 AM 73.0 °F - 72.0 °F 96% 30.07 in 8.0 mi Calm Calm - 0.01 in   Clear
7:53 AM 75.9 °F - 73.0 °F 91% 30.09 in 10.0 mi Calm Calm - N/A   Clear
8:53 AM 81.0 °F 85.8 °F 73.0 °F 77% 30.10 in 10.0 mi Calm Calm - N/A   Clear
9:53 AM 84.9 °F 89.4 °F 70.0 °F 61% 30.09 in 10.0 mi Calm Calm - N/A   Clear
10:53 AM 87.1 °F 92.8 °F 71.1 °F 59% 30.09 in 10.0 mi Variable 3.5 mph - N/A   Partly Cloudy
11:53 AM 84.9 °F 90.7 °F 72.0 °F 65% 30.07 in 10.0 mi NNE 3.5 mph - N/A   Overcast
12:53 PM 80.1 °F 85.1 °F 75.0 °F 85% 30.05 in 8.0 mi Calm Calm - 0.03 in Rain Light Rain
1:44 PM 78.8 °F - 73.4 °F 83% 30.05 in 10.0 mi SW 8.1 mph - 0.02 in Thunderstorm Thunderstorm
1:53 PM 80.1 °F 84.5 °F 73.9 °F 81% 30.03 in 10.0 mi WSW 8.1 mph - 0.02 in Thunderstorm Thunderstorm
2:03 PM 80.6 °F 85.4 °F 73.4 °F 79% 30.03 in 10.0 mi WSW 6.9 mph - N/A   Mostly Cloudy
2:20 PM 80.6 °F 86.2 °F 75.2 °F 84% 30.02 in 5.0 mi WSW 3.5 mph - 0.01 in Rain , Thunderstorm Light Thunderstorms and Rain
2:36 PM 82.4 °F 90.9 °F 77.0 °F 84% 30.02 in 10.0 mi WSW 4.6 mph - 0.01 in   Scattered Clouds
2:53 PM 82.0 °F 89.4 °F 75.9 °F 82% 30.01 in 10.0 mi West 5.8 mph - 0.01 in Thunderstorm Thunderstorm
3:53 PM 77.0 °F - 71.1 °F 82% 30.01 in 10.0 mi Calm Calm - 0.00 in Thunderstorm Thunderstorm
4:33 PM 77.0 °F - 71.6 °F 83% 30.03 in 10.0 mi WSW 5.8 mph - 0.00 in   Overcast
4:53 PM 75.9 °F - 72.0 °F 87% 30.00 in 10.0 mi SW 3.5 mph - 0.00 in   Scattered Clouds
5:36 PM 77.0 °F - 73.4 °F 89% 30.00 in 10.0 mi South 3.5 mph - N/A Thunderstorm Thunderstorm
5:51 PM 77.0 °F - 71.6 °F 83% 30.00 in 10.0 mi Calm Calm - N/A   Partly Cloudy
5:53 PM 77.0 °F - 72.0 °F 84% 29.99 in 10.0 mi Calm Calm - N/A   Partly Cloudy
6:19 PM 77.0 °F - 73.4 °F 89% 30.01 in 10.0 mi Calm Calm - N/A Thunderstorm Thunderstorm
6:40 PM 77.0 °F - 73.4 °F 89% 30.01 in 10.0 mi ENE 4.6 mph - N/A   Clear
6:53 PM 77.0 °F - 73.0 °F 88% 30.00 in 10.0 mi Calm Calm - N/A   Clear
7:53 PM 75.9 °F - 72.0 °F 87% 29.99 in 10.0 mi Calm Calm - N/A   Clear
8:53 PM 75.9 °F - 72.0 °F 87% 30.00 in 10.0 mi Calm Calm - N/A   Clear
9:53 PM 73.9 °F - 72.0 °F 93% 30.03 in 10.0 mi Calm Calm - N/A   Partly Cloudy
10:53 PM 73.9 °F - 72.0 °F 93% 30.04 in 10.0 mi Calm Calm - N/A   Clear
11:53 PM 73.0 °F - 72.0 °F 96% 30.04 in 9.0 mi Calm Calm - N/A   Partly Cloudy